Regional Weather Roundup
Issued by NWS

Home | Current Version | Previous Version | Text Only | Print | Product List | Glossary Off
Versions: 1 2 3 4 5 6 7 8 9 10 11 12 13 14 15 16 17 18 19 20 21 22 23 24 25 26 27 28 29 30 31 32 33 34 35 36 37 38 39 40 41 42 43 44 45 46 47 48 49 50

000
ASUS43 KLMK 050402
RWRKY
KENTUCKY REGIONAL WEATHER ROUNDUP
NATIONAL WEATHER SERVICE LOUISVILLE KY
1200 AM EDT TUE MAY 05 2015

NOTE "FAIR" INDICATES FEW OR NO CLOUDS BELOW 12,000 FEET
WITH NO SIGNIFICANT WEATHER AND/OR OBSTRUCTIONS TO VISIBILITY.

KYZ001>023-026-027-061>063-070>075-050500-
WESTERN AND SOUTH CENTRAL KENTUCKY

CITY           SKY/WX    TMP DP  RH WIND       PRES   REMARKS
PADUCAH        CLEAR     69  53  56 S6        30.17R
HENDERSON      CLEAR     68  54  60 S6        30.17S
OWENSBORO      CLEAR     67  58  72 S5        30.19S
HOPKINSVILLE   CLEAR     70  54  56 SE6       30.20R
BOWLING GREEN  CLEAR     67  55  65 CALM      30.22R
GLASGOW        NOT AVBL
$$

KYZ024-025-028>034-038-045-046-053-050500-
NORTH CENTRAL KENTUCKY

CITY           SKY/WX    TMP DP  RH WIND       PRES   REMARKS
LOUISVILLE/SDF PTCLDY    73  56  54 S7        30.20R
LOUISVILLE/LOU CLEAR     67  57  70 CALM      30.20S
FORT KNOX      CLEAR     64  56  74 CALM      30.20R
$$

KYZ035>037-039>044-047>052-055>060-089>105-050500-
NORTHEAST KENTUCKY

CITY           SKY/WX    TMP DP  RH WIND       PRES   REMARKS
LEXINGTON      CLEAR     66  55  67 S7        30.23S
COVINGTON      CLOUDY    66  57  72 S6        30.20S
FRANKFORT      PTCLDY    67  54  63 SW5       30.21R
$$

KYZ054-064>069-076>088-106>120-050500-
SOUTHEAST KENTUCKY

CITY           SKY/WX    TMP DP  RH WIND       PRES   REMARKS
JACKSON        PTCLDY    69  47  45 CALM      30.26R
LONDON         CLEAR     62  51  67 CALM      30.26R
SOMERSET       NOT AVBL
MIDDLESBORO    CLEAR     56  53  89 CALM      30.29R
MONTICELLO     CLEAR     58  54  86 CALM      30.28S
$$




USA.gov is the U.S. government's official web portal to all federal, state and local government web resources and services.